When you browse on this site, cookies collect data to enhance your experience and personalize the content and advertising you see.
Visit our Privacy Policy to learn more. By continuing to use the site, you agree to this use of cookies and data.
  • In Austria
  • List of Countries
  • For 7 days
  • Water Temperature
  • Weather Map
  • News
  • Weather Widgets
  • user-avatar
    Login

    Hourly Weather Maracay

    Today, 21 January, Tuesday

    Time Temperature Precipitation Wind Pressure Humidity
    00:00 +24°C° 0 mm 1 mps 711 mmHg 87%
    01:00 +23°C° 0 mm 1 mps 711 mmHg 84%
    02:00 +23°C° 0 mm 1 mps 711 mmHg 84%
    03:00 +21°C° 0 mm 0 mps 710 mmHg 85%
    04:00 +21°C° 0 mm 0 mps 710 mmHg 85%
    05:00 +23°C° 0 mm 1 mps 711 mmHg 84%
    06:00 +24°C° 0 mm 1 mps 711 mmHg 83%
    07:00 +24°C° 0 mm 1 mps 711 mmHg 82%
    08:00 +26°C° 0 mm 1 mps 712 mmHg 74%
    09:00 +28°C° 0 mm 1 mps 712 mmHg 66%
    10:00 +30°C° 0 mm 1 mps 713 mmHg 59%
    11:00 +30°C° 0 mm 1 mps 712 mmHg 57%
    12:00 +30°C° 0 mm 2 mps 711 mmHg 55%
    13:00 +31°C° 0 mm 2 mps 710 mmHg 54%
    14:00 +30°C° 0.1 mm 2 mps 710 mmHg 57%
    15:00 +30°C° 0.1 mm 2 mps 709 mmHg 60%
    16:00 +29°C° 0.1 mm 1 mps 708 mmHg 63%
    17:00 +28°C° 0.1 mm 1 mps 709 mmHg 69%
    18:00 +26°C° 0.1 mm 2 mps 709 mmHg 75%
    19:00 +25°C° 0.1 mm 2 mps 709 mmHg 82%
    20:00 +25°C° 0 mm 1 mps 710 mmHg 83%
    21:00 +24°C° 0 mm 1 mps 710 mmHg 85%
    22:00 +24°C° 0 mm 1 mps 711 mmHg 86%
    23:00 +24°C° 0 mm 1 mps 710 mmHg 87%

    Tomorrow, 22 January, Wednesday

    Time Temperature Precipitation Wind Pressure Humidity
    00:00 +23°C° 0 mm 1 mps 710 mmHg 89%
    01:00 +21°C° 0 mm 0 mps 710 mmHg 90%
    02:00 +21°C° 0 mm 0 mps 709 mmHg 91%
    03:00 +21°C° 0 mm 0 mps 709 mmHg 91%
    04:00 +21°C° 0 mm 0 mps 709 mmHg 92%
    05:00 +21°C° 0 mm 0 mps 710 mmHg 90%
    06:00 +21°C° 0 mm 0 mps 710 mmHg 88%
    07:00 +22°C° 0 mm 0 mps 710 mmHg 87%
    08:00 +24°C° 0 mm 0 mps 711 mmHg 79%
    09:00 +27°C° 0 mm 1 mps 712 mmHg 71%
    10:00 +29°C° 0 mm 1 mps 712 mmHg 64%
    11:00 +30°C° 0.2 mm 1 mps 712 mmHg 62%
    12:00 +30°C° 0.2 mm 1 mps 711 mmHg 60%
    13:00 +31°C° 0.2 mm 1 mps 710 mmHg 58%
    14:00 +30°C° 0.1 mm 1 mps 709 mmHg 60%
    15:00 +30°C° 0.1 mm 1 mps 709 mmHg 61%
    16:00 +29°C° 0.1 mm 1 mps 708 mmHg 63%
    17:00 +28°C° 0.1 mm 1 mps 709 mmHg 68%
    18:00 +27°C° 0.1 mm 1 mps 709 mmHg 73%
    19:00 +26°C° 0.1 mm 1 mps 709 mmHg 78%
    20:00 +25°C° 0 mm 1 mps 710 mmHg 80%
    21:00 +25°C° 0 mm 1 mps 710 mmHg 82%
    22:00 +25°C° 0 mm 2 mps 710 mmHg 84%
    23:00 +24°C° 0 mm 1 mps 710 mmHg 85%

    Day after tomorrow, 23 January, Thursday

    Time Temperature Precipitation Wind Pressure Humidity
    00:00 +24°C° 0 mm 1 mps 710 mmHg 86%
    01:00 +23°C° 0 mm 1 mps 709 mmHg 88%
    02:00 +23°C° 0 mm 1 mps 709 mmHg 88%
    03:00 +23°C° 0 mm 1 mps 709 mmHg 89%
    04:00 +22°C° 0 mm 1 mps 709 mmHg 89%
    05:00 +23°C° 0 mm 1 mps 709 mmHg 87%
    06:00 +23°C° 0 mm 1 mps 710 mmHg 85%
    07:00 +23°C° 0 mm 1 mps 710 mmHg 83%
    08:00 +25°C° 0 mm 1 mps 711 mmHg 75%
    09:00 +27°C° 0 mm 1 mps 711 mmHg 67%
    10:00 +29°C° 0 mm 1 mps 712 mmHg 59%
    11:00 +30°C° 0 mm 2 mps 711 mmHg 57%
    12:00 +30°C° 0 mm 2 mps 711 mmHg 54%
    13:00 +31°C° 0 mm 2 mps 710 mmHg 52%
    14:00 +30°C° 0 mm 2 mps 709 mmHg 54%
    15:00 +29°C° 0 mm 3 mps 709 mmHg 57%
    16:00 +28°C° 0 mm 3 mps 708 mmHg 60%
    17:00 +27°C° 0 mm 3 mps 709 mmHg 66%
    18:00 +25°C° 0 mm 2 mps 709 mmHg 73%
    19:00 +23°C° 0 mm 2 mps 709 mmHg 80%
    20:00 +23°C° 0 mm 2 mps 709 mmHg 81%
    21:00 +23°C° 0 mm 2 mps 710 mmHg 83%
    22:00 +21°C° 0 mm 2 mps 710 mmHg 84%
    23:00 +21°C° 0 mm 2 mps 710 mmHg 84%

    24 January, Friday

    Time Temperature Precipitation Wind Pressure Humidity
    00:00 +21°C° 0 mm 2 mps 710 mmHg 85%
    01:00 +21°C° 0 mm 2 mps 709 mmHg 85%
    02:00 +21°C° 0 mm 2 mps 709 mmHg 86%
    03:00 +20°C° 0 mm 2 mps 709 mmHg 87%
    04:00 +20°C° 0 mm 2 mps 709 mmHg 88%
    05:00 +21°C° 0 mm 1 mps 710 mmHg 86%
    06:00 +22°C° 0 mm 1 mps 711 mmHg 83%
    07:00 +22°C° 0 mm 1 mps 711 mmHg 81%
    08:00 +24°C° 0 mm 1 mps 712 mmHg 72%
    09:00 +27°C° 0 mm 1 mps 712 mmHg 63%
    10:00 +29°C° 0 mm 1 mps 713 mmHg 55%
    11:00 +29°C° 0 mm 1 mps 712 mmHg 53%
    12:00 +30°C° 0 mm 2 mps 712 mmHg 51%
    13:00 +30°C° 0 mm 2 mps 711 mmHg 50%
    14:00 +30°C° 0 mm 2 mps 711 mmHg 52%
    15:00 +29°C° 0 mm 2 mps 710 mmHg 55%
    16:00 +28°C° 0 mm 2 mps 709 mmHg 58%
    17:00 +26°C° 0 mm 2 mps 710 mmHg 64%
    18:00 +25°C° 0 mm 2 mps 710 mmHg 70%
    19:00 +23°C° 0 mm 2 mps 710 mmHg 76%
    20:00 +21°C° 0 mm 2 mps 710 mmHg 78%
    21:00 +21°C° 0 mm 2 mps 711 mmHg 80%
    22:00 +20°C° 0 mm 2 mps 711 mmHg 82%
    23:00 +20°C° 0 mm 2 mps 711 mmHg 83%

    25 January, Saturday

    Time Temperature Precipitation Wind Pressure Humidity
    00:00 +21°C° 0 mm 1 mps 711 mmHg 84%
    01:00 +21°C° 0 mm 1 mps 710 mmHg 85%
    02:00 +21°C° 0 mm 1 mps 710 mmHg 85%
    03:00 +21°C° 0 mm 1 mps 710 mmHg 85%
    04:00 +21°C° 0 mm 1 mps 710 mmHg 85%
    05:00 +21°C° 0 mm 1 mps 711 mmHg 84%
    06:00 +22°C° 0 mm 1 mps 711 mmHg 83%
    07:00 +22°C° 0 mm 1 mps 712 mmHg 81%
    08:00 +24°C° 0 mm 1 mps 712 mmHg 73%
    09:00 +27°C° 0 mm 1 mps 713 mmHg 65%
    10:00 +29°C° 0 mm 1 mps 713 mmHg 57%
    11:00 +29°C° 0 mm 1 mps 713 mmHg 55%
    12:00 +30°C° 0 mm 1 mps 712 mmHg 54%
    13:00 +30°C° 0 mm 1 mps 712 mmHg 52%
    14:00 +29°C° 0.1 mm 1 mps 711 mmHg 57%
    15:00 +29°C° 0.1 mm 2 mps 711 mmHg 63%
    16:00 +28°C° 0.1 mm 2 mps 710 mmHg 68%
    17:00 +26°C° 0.1 mm 2 mps 710 mmHg 73%
    18:00 +25°C° 0.1 mm 2 mps 711 mmHg 79%
    19:00 +24°C° 0.1 mm 2 mps 711 mmHg 84%
    20:00 +24°C° 0 mm 1 mps 711 mmHg 86%
    21:00 +23°C° 0 mm 1 mps 711 mmHg 88%
    22:00 +23°C° 0 mm 1 mps 712 mmHg 90%
    23:00 +23°C° 0 mm 1 mps 711 mmHg 90%

    26 January, Sunday

    Time Temperature Precipitation Wind Pressure Humidity
    00:00 +23°C° 0 mm 1 mps 711 mmHg 91%
    01:00 +22°C° 0 mm 1 mps 711 mmHg 91%
    02:00 +22°C° 0 mm 1 mps 710 mmHg 91%
    03:00 +22°C° 0 mm 1 mps 710 mmHg 91%
    04:00 +22°C° 0 mm 1 mps 710 mmHg 91%
    05:00 +22°C° 0 mm 1 mps 711 mmHg 89%
    06:00 +23°C° 0 mm 1 mps 712 mmHg 87%
    07:00 +23°C° 0 mm 1 mps 712 mmHg 85%
    08:00 +25°C° 0 mm 1 mps 712 mmHg 77%
    09:00 +27°C° 0 mm 1 mps 713 mmHg 69%
    10:00 +29°C° 0 mm 1 mps 713 mmHg 60%
    11:00 +30°C° 0.4 mm 1 mps 713 mmHg 59%
    12:00 +30°C° 0.4 mm 2 mps 712 mmHg 58%
    13:00 +30°C° 0.4 mm 2 mps 711 mmHg 57%
    14:00 +29°C° 0.3 mm 2 mps 711 mmHg 60%
    15:00 +29°C° 0.3 mm 2 mps 710 mmHg 63%
    16:00 +28°C° 0.3 mm 2 mps 710 mmHg 66%
    17:00 +27°C° 0.1 mm 2 mps 710 mmHg 72%
    18:00 +25°C° 0.1 mm 2 mps 710 mmHg 79%
    19:00 +24°C° 0.1 mm 2 mps 711 mmHg 85%
    20:00 +23°C° 0 mm 2 mps 711 mmHg 86%
    21:00 +23°C° 0 mm 2 mps 711 mmHg 87%
    22:00 +23°C° 0 mm 1 mps 711 mmHg 89%
    23:00 +22°C° 0 mm 1 mps 711 mmHg 89%
    Show more